Location: Unspecified
(0.0000°N, 0.0000°E)
Time: 01:46:07
(UTC+00:00)

Envisat - Pass Details

Date: 18 March 2018
Orbit: 764 x 766 km, 98.2° (Epoch: 17 June)

Event Time Altitude Azimuth Distance (km) Brightness Sun altitude
Exits shadow 20:01:56 40° 347° (NNW) 1,115 3.8 -28.5°
Drops below altitude 10° 20:05:06 10° 348° (NNW) 2,290 5.6 -29.3°
Sets 20:07:23 0° 348° (NNW) 3,213 6.4 -29.8°
